Location: Unspecified
(0.0000°N, 0.0000°E)
Time: 13:58:01
(UTC+00:00)

N. Korean satellite - Pass Details

Date: 01 June 2019
Orbit: 455 x 510 km, 97.2° (Epoch: 16 June)

Event Time Altitude Azimuth Distance (km) Brightness Sun altitude
Rises 18:16:46 0° 192° (SSW) 2,615 10.2 -4.4°
Reaches altitude 10° 18:19:12 10° 207° (SSW) 1,727 9.4 -4.9°
Maximum altitude 18:22:06 22° 259° (WSW) 1,155 9.3 -5.6°
Drops below altitude 10° 18:24:59 10° 310° (NW) 1,712 10.8 -6.3°
Sets 18:27:24 0° 326° (NW) 2,587 11.3 -6.8°
